[[{"header":{"parameterUnit":"m.s-1","parameterCategory":1,"la1":30.2991,"la2":30.254,"lo1":-89.0895,"lo2":-89.0444,"dy":0.0017,"dx":0.0017,"nx":28,"ny":28,"refTime":"2023-10-27T09:00:00:Z","depth":0,"parameterNumber":2,"parameterNumberName":"U-component_of_WINDS"},"data":[0,0,0,0,0,0,0,0,0,0,0,0,0,0,0,0,0,0,0,0,0,0,0,0,0,0,0,0,0,0,0,0,0,0,0,0,0,0,0,0,0,0,0,0,0,0,0,0,0,0,0,0,0,0,0,0,0,0,-2.9332,-2.9332,0,-2.9338,-2.9338,-2.9338,-2.9242,-2.924,-2.9237,-2.9235,-2.9241,-2.9244,-2.9246,0,0,0,0,0,0,0,0,0,0,0,0,0,-2.9237,-2.9239,-2.9332,-2.9332,-2.9332,-2.9338,-2.9338,-2.9338,-2.9243,-2.9239,-2.9236,-2.9233,-2.924,-2.9243,-2.9246,0,0,0,0,0,0,0,0,0,0,0,0,0,-2.9264,-2.924,-2.9332,-2.9285,-2.9281,-2.9338,-2.9338,-2.9338,-2.9243,-2.9239,-2.9235,-2.9232,-2.9239,-2.9243,-2.9247,-2.9349,0,0,-2.9259,-2.926,0,0,0,0,0,0,0,0,-2.9263,-2.9268,-2.9292,-2.9288,-2.9284,-2.9285,-2.9307,-2.9342,-2.9244,-2.9258,-2.9234,-2.923,-2.9259,-2.9261,-2.9271,-2.9349,-2.9349,-2.9259,-2.9261,-2.9263,-2.9264,0,0,0,0,0,0,0,-2.9261,-2.9267,-2.9334,-2.9292,-2.9287,-2.9264,-2.9263,-2.9313,-2.928,-2.9256,-2.9249,-2.9251,-2.9256,-2.9267,-2.927,-2.935,-2.9259,-2.9262,-2.9265,-2.9266,-2.951,-2.9514,0,0,0,0,0,0,-2.9265,-2.9266,-2.9334,-2.9334,-2.9263,-2.9269,-2.9268,-2.9289,-2.9279,-2.9274,-2.9255,-2.9247,-2.9262,-2.9266,-2.927,-2.9387,-2.9263,-2.9267,-2.9269,-2.9506,-2.9511,-2.9516,0,0,0,0,0,0,-2.9264,-2.9272,-2.9334,-2.9298,-2.9304,-2.9274,-2.9298,-2.9291,-2.9302,-2.9278,-2.9272,-2.9272,-2.9259,-2.9264,-2.9329,-2.9386,-2.9268,-2.9272,-2.9501,-2.9508,-2.9514,-2.9623,0,0,0,0,0,0,-2.9262,-2.9272,-2.9311,-2.93,-2.9307,-2.9394,-2.9302,-2.9294,-2.9309,-2.9299,-2.9293,-2.9288,-2.9257,-2.9324,-2.9333,-2.9389,-2.9275,-2.9496,-2.9504,-2.9512,-2.9614,-2.9632,-2.9647,0,0,0,0,0,-2.9258,-2.9342,-2.9313,-2.9322,-2.9354,-2.9397,-2.9401,-2.9363,-2.9314,-2.9352,-2.9337,-2.9288,-2.9379,-2.9332,-2.9341,-2.9399,-2.9492,-2.9502,-2.9511,-2.9606,-2.9629,-2.9647,0,0,0,0,0,0,-2.936,-2.934,-2.9308,-2.939,-2.9396,-2.9381,-2.9427,-2.9388,-2.9408,-2.9397,-2.935,-2.935,-2.9422,-2.9417,-2.9365,-2.9496,-2.9427,-2.9439,-2.9496,-2.9517,-2.9533,-2.9532,-2.9278,0,0,0,0,0,-2.9393,-2.9429,-2.9409,-2.9484,-2.9488,-2.9458,-2.9475,-2.9446,-2.945,-2.9452,-2.9441,-2.9447,-2.9476,-2.9497,-2.9523,-2.9614,-2.961,-2.9658,-2.9675,-2.9689,-2.9699,-2.9744,-2.9765,-2.9546,-2.9546,-2.9546,0,0,-2.9459,-2.9452,-2.9478,-2.9504,-2.9505,-2.9543,-2.9461,-2.9505,-2.9533,-2.9459,-2.9518,-2.9512,-2.9515,-2.9593,-2.9627,-2.9591,-2.9759,-2.9701,-2.9712,-2.9714,-2.9756,-2.9777,-2.9795,-2.9553,-2.9552,-2.9551,0,0,-2.9599,-2.9599,-2.966,-2.9663,-2.9665,-2.9644,-2.966,-2.965,-2.9642,-2.9702,-2.9647,-2.968,-2.9732,-2.9736,-2.9745,-2.9887,-2.9843,-2.9898,-2.9984,-3.0029,-3.0046,-3.0061,-3.0109,-3.0128,-2.9908,-2.9908,-2.9908,0,-2.9681,-2.9737,-2.9696,-2.9744,-2.9756,-2.9692,-2.9752,-2.9757,-2.9769,-2.9778,-2.9739,-2.9802,-2.9801,-2.9877,-2.9912,-2.9923,-2.9937,-2.9896,-3.0047,-3.0062,-3.0075,-3.012,-3.0139,-2.9915,-2.9914,-2.9913,-2.9913,0,-2.9836,-2.9876,-2.9925,-2.9937,-2.9955,-3.001,-2.9977,-3.0001,-2.997,-2.9954,-3.0015,-3.001,-3.0033,-3.005,-3.0021,-3.0123,-3.01,-3.0055,-2.9984,-3.0103,-3.0145,-3.0162,-2.9924,-2.9922,-2.992,-2.9918,0,0,-3.0039,-3.0028,-3.0046,-3.005,-3.0049,-3.0078,-3.013,-3.0152,-3.0172,-3.0183,-3.0224,-3.027,-3.0227,-3.0238,-3.0209,-3.0249,-3.0359,-3.0198,-3.0198,-3.0226,-3.0469,-3.0501,-3.0522,-3.0331,-3.0334,-3.0337,-3.0468,0,-3.0173,-3.0259,-3.0224,-3.0313,-3.0348,-3.0288,-3.0332,-3.0336,-3.0322,-3.035,-3.0335,-3.0367,-3.031,-3.0316,-3.0353,-3.0338,-3.0407,-3.0329,-3.0367,-3.0369,-3.0365,-3.0544,-3.0578,-3.0702,-3.0484,-3.0487,-3.0489,0,-3.034,-3.0356,-3.0449,-3.044,-3.0453,-3.0494,-3.0511,-3.0539,-3.0542,-3.0529,-3.0541,-3.0503,-3.0553,-3.0484,-3.0551,-3.0498,-3.0512,-3.0507,-3.0511,-3.0511,-3.0434,-3.0546,-3.074,-3.0758,-3.0515,-3.0513,-3.0511,0,-3.0475,-3.0521,-3.0581,-3.0587,-3.0579,-3.0608,-3.0607,-3.0606,-3.0621,-3.0637,-3.0646,-3.0668,-3.0679,-3.0697,-3.0666,-3.0619,-3.0736,-3.0665,-3.0725,-3.0726,-3.075,-3.0748,-3.0946,-3.0765,-3.0764,-3.0764,-3.0764,0,-3.0626,-3.0684,-3.0641,-3.0678,-3.0742,-3.0702,-3.0765,-3.0757,-3.0757,-3.0791,-3.0741,-3.0774,-3.0732,-3.0762,-3.0738,-3.0795,-3.0802,-3.0792,-3.0784,-3.0794,-3.0795,-3.0801,-3.079,-3.0769,-3.0768,-3.0767,-3.0766,0,-3.0786,-3.076,-3.0821,-3.0809,-3.0807,-3.0854,-3.0843,-3.0877,-3.086,-3.0904,-3.0912,-3.0886,-3.0917,-3.0889,-3.0919,-3.0903,-3.0979,-3.0961,-3.0978,-3.0971,-3.1032,-3.1026,-3.1238,-3.1263,-3.1068,-3.107,-3.1072,0,-3.0882,-3.0925,-3.0918,-3.0937,-3.0938,-3.097,-3.0985,-3.0948,-3.0966,-3.0973,-3.1005,-3.1033,-3.1052,-3.1105,-3.1089,-3.1112,-3.1092,-3.1165,-3.1095,-3.1103,-3.1089,-3.1086,-3.1089,-3.1178,-3.118,-3.1182,-3.1184,0,-3.1056,-3.104,-3.1064,-3.1084,-3.1104,-3.1118,-3.1128,-3.1146,-3.1108,-3.1131,-3.1162,-3.1178,-3.1209,-3.1236,-3.1253,-3.1251,-3.1211,-3.1206,-3.1221,-3.123,-3.1237,-3.1231,-3.1013,-3.1201,-3.1199,-3.1198,-3.1197,-3.1196,-3.1184,-3.1219,-3.1219,-3.1247,-3.1251,-3.1261,-3.1292,-3.1279,-3.1304,-3.1326,-3.1303,-3.1341,-3.1343,-3.1362,-3.1365,-3.1394,-3.1363,-3.1385,-3.139,-3.1395,-3.1403,-3.1235,-3.1398,-3.1397,-3.1397,-3.1396,-3.1396,0,-3.1353,-3.135,-3.1376,-3.1391,-3.1413,-3.1375,-3.1384,-3.1404,-3.1438,-3.1443,-3.1464,-3.1499,-3.1526,-3.1512,-3.1535,-3.156,-3.1542,-3.1567,-3.1563,-3.1563,-3.143,-3.1414,-3.1581,-3.1581,-3.1581,-3.1581,-3.1581,-3.1581,-3.1442,-3.1499,-3.1484,-3.1541,-3.1538,-3.1574,-3.1582,-3.1592,-3.1595,-3.1637,-3.1658,-3.165,-3.1647,-3.1669,-3.1691,-3.1686,-3.1696,-3.1727,-3.1715,-3.1591,-3.1573,-3.1555,-3.1539,-3.173,-3.173,-3.1845,-3.1846,-3.1847]},{"header":{"parameterUnit":"m.s-1","parameterCategory":1,"la1":30.2991,"la2":30.254,"lo1":-89.0895,"lo2":-89.0444,"dy":0.0017,"dx":0.0017,"nx":28,"ny":28,"refTime":"2023-10-27T09:00:00:Z","depth":0,"parameterNumber":3,"parameterNumberName":"V-component_of_WINDS"},"data":[0,0,0,0,0,0,0,0,0,0,0,0,0,0,0,0,0,0,0,0,0,0,0,0,0,0,0,0,0,0,0,0,0,0,0,0,0,0,0,0,0,0,0,0,0,0,0,0,0,0,0,0,0,0,0,0,0,0,1.9541,1.954,0,1.9493,1.9492,1.9492,1.9383,1.9381,1.9378,1.9376,1.9331,1.9332,1.9333,0,0,0,0,0,0,0,0,0,0,0,0,0,1.9542,1.9542,1.9541,1.954,1.9539,1.9493,1.9492,1.9492,1.9383,1.9381,1.9378,1.9375,1.9331,1.9332,1.9333,0,0,0,0,0,0,0,0,0,0,0,0,0,1.9523,1.9543,1.9541,1.948,1.9474,1.9493,1.9492,1.9491,1.9384,1.938,1.9377,1.9374,1.933,1.9332,1.9333,1.9409,0,0,1.9337,1.9338,0,0,0,0,0,0,0,0,1.9524,1.9523,1.9489,1.9484,1.9477,1.944,1.9476,1.9464,1.9385,1.9418,1.9376,1.9372,1.937,1.9368,1.9367,1.9407,1.9405,1.9337,1.9338,1.9338,1.9339,0,0,0,0,0,0,0,1.9525,1.9524,1.9522,1.9489,1.9482,1.9456,1.9449,1.9473,1.9414,1.9415,1.9407,1.9403,1.9366,1.9366,1.9365,1.9404,1.9337,1.9338,1.9339,1.934,1.9504,1.9507,0,0,0,0,0,0,1.9535,1.9526,1.9523,1.952,1.9493,1.9459,1.9451,1.9456,1.9413,1.9403,1.9405,1.9398,1.9365,1.9363,1.9363,1.9448,1.9338,1.934,1.934,1.9501,1.9505,1.9509,0,0,0,0,0,0,1.9535,1.9536,1.9525,1.9521,1.9518,1.9462,1.9468,1.9456,1.9455,1.9406,1.9395,1.9415,1.9362,1.9361,1.9398,1.9445,1.934,1.9342,1.9496,1.9502,1.9507,1.962,0,0,0,0,0,0,1.9536,1.9537,1.9564,1.9522,1.9518,1.956,1.9471,1.9458,1.9458,1.9447,1.9412,1.9404,1.936,1.9396,1.9399,1.9445,1.9343,1.9492,1.9499,1.9505,1.9612,1.9629,1.9643,0,0,0,0,0,1.9536,1.9598,1.9566,1.9566,1.9551,1.9563,1.9561,1.9508,1.9462,1.9489,1.9458,1.9405,1.944,1.9401,1.9403,1.945,1.9489,1.9497,1.9505,1.9605,1.9626,1.9643,0,0,0,0,0,0,1.9648,1.9592,1.9555,1.9605,1.959,1.9545,1.9577,1.9531,1.9529,1.952,1.9455,1.9448,1.9494,1.9476,1.9434,1.9522,1.9456,1.9465,1.9531,1.9551,1.9566,1.9569,1.9344,0,0,0,0,0,1.9678,1.9692,1.9642,1.9692,1.9686,1.9634,1.9637,1.9597,1.9579,1.9572,1.9543,1.9529,1.9536,1.9543,1.9547,1.961,1.9601,1.9643,1.9659,1.9672,1.968,1.9712,1.973,1.9535,1.9535,1.9535,0,0,1.9741,1.9712,1.9725,1.9713,1.9697,1.9713,1.9629,1.9649,1.9661,1.9576,1.9608,1.9587,1.9566,1.9617,1.9637,1.9603,1.9732,1.9682,1.9693,1.9694,1.9722,1.974,1.9757,1.954,1.954,1.9539,0,0,1.9864,1.9844,1.9882,1.9867,1.9842,1.9807,1.9817,1.9779,1.9761,1.9793,1.9729,1.9743,1.9758,1.9745,1.9741,1.9861,1.9812,1.9865,1.9946,1.9978,1.9993,2.0006,2.0048,2.0064,1.9873,1.9874,1.9874,0,1.9946,1.9966,1.9908,1.9933,1.993,1.9853,1.9892,1.9881,1.986,1.986,1.9822,1.9838,1.9819,1.9865,1.9895,1.9894,1.9903,1.9867,1.9995,2.0008,2.0019,2.0059,2.0075,1.988,1.9879,1.9879,1.9878,0,2.0067,2.0083,2.0117,2.0097,2.0099,2.0131,2.0079,2.0087,2.0049,2.0018,2.0052,2.0026,2.0024,2.0033,1.9995,2.0074,2.0053,2.0007,1.9938,2.0045,2.0081,2.0096,1.9889,1.9887,1.9885,1.9883,0,0,2.0257,2.0205,2.0219,2.0209,2.0177,2.0188,2.0218,2.0214,2.0223,2.0212,2.0235,2.025,2.0206,2.0202,2.0163,2.0191,2.0287,2.014,2.0139,2.0168,2.0372,2.0406,2.0425,2.0255,2.0258,2.026,2.0373,0,2.0371,2.0416,2.0365,2.0422,2.0436,2.0364,2.0389,2.0373,2.0346,2.0355,2.0326,2.0337,2.0278,2.0275,2.03,2.027,2.0327,2.0261,2.0276,2.0277,2.0282,2.0444,2.048,2.0588,2.0387,2.0389,2.0391,0,2.051,2.0504,2.0561,2.0526,2.0529,2.0553,2.0546,2.0556,2.0537,2.0515,2.0511,2.0464,2.0491,2.0427,2.0464,2.042,2.0424,2.041,2.0413,2.0412,2.034,2.0445,2.0621,2.0637,2.0413,2.0411,2.0409,0,2.0641,2.0648,2.0683,2.0677,2.0637,2.0655,2.064,2.0617,2.0619,2.0614,2.0614,2.0613,2.0612,2.0613,2.0568,2.0525,2.0611,2.0542,2.0594,2.0596,2.0614,2.0613,2.0792,2.0619,2.0619,2.0619,2.0618,0,2.0773,2.0811,2.0741,2.0763,2.0803,2.0746,2.0788,2.0765,2.0746,2.0763,2.0702,2.0719,2.0659,2.067,2.0635,2.0671,2.0672,2.0656,2.0646,2.066,2.0662,2.0661,2.0652,2.0623,2.0622,2.0621,2.062,0,2.0926,2.0881,2.0914,2.0873,2.0864,2.0896,2.0862,2.0881,2.085,2.0872,2.0874,2.0827,2.0837,2.0792,2.0795,2.0772,2.0826,2.0804,2.0832,2.0824,2.0878,2.0874,2.1061,2.1083,2.0897,2.0899,2.0901,0,2.1012,2.1039,2.1001,2.1008,2.0995,2.1006,2.1007,2.0952,2.0956,2.0937,2.0959,2.0964,2.0965,2.0985,2.0952,2.0954,2.0931,2.0997,2.0931,2.0945,2.0931,2.0929,2.0932,2.101,2.1012,2.1014,2.1016,0,2.1169,2.1146,2.1149,2.1145,2.1148,2.1143,2.1133,2.1142,2.1083,2.1091,2.11,2.1101,2.1104,2.111,2.1106,2.1091,2.1044,2.1037,2.1049,2.1063,2.1078,2.107,2.0868,2.1032,2.1031,2.103,2.1029,2.1028,2.129,2.1311,2.1288,2.1294,2.1281,2.1274,2.1289,2.1261,2.1267,2.1264,2.1232,2.1248,2.123,2.1218,2.1208,2.1221,2.119,2.1207,2.1211,2.1216,2.1225,2.1077,2.122,2.1219,2.1219,2.1218,2.1218,0,2.1444,2.1425,2.1432,2.142,2.1425,2.138,2.1368,2.1375,2.1389,2.1375,2.1378,2.1389,2.1395,2.1363,2.1364,2.138,2.1359,2.1383,2.138,2.1378,2.1253,2.1242,2.14,2.14,2.14,2.14,2.14,2.14,2.1524,2.1556,2.1531,2.1557,2.1539,2.1552,2.1549,2.1543,2.1531,2.1546,2.1551,2.1529,2.1508,2.1508,2.1512,2.1503,2.1506,2.1537,2.152,2.1404,2.1386,2.1369,2.1359,2.1538,2.1538,2.1643,2.1644,2.1645]}]]